Regional Weather Roundup
Issued by NWS

Home | Current Version | Previous Version | Graphics & Text | Print | Product List | Glossary On
Versions: 1 2 3 4 5 6 7 8 9 10 11 12 13 14 15 16 17 18 19 20 21 22 23 24 25 26 27 28 29 30 31 32 33 34 35 36 37 38 39 40 41 42 43 44 45 46 47 48 49 50
000
ASUS43 KFSD 210302
RWRSD

WEATHER ROUNDUP FOR SOUTH DAKOTA
NATIONAL WEATHER SERVICE SIOUX FALLS SD
1000 PM CDT SAT SEP 20 2014

NOTE: "FAIR" INDICATES FEW OR NO CLOUDS BELOW 12,000 FEET WITH NO
SIGNIFICANT WEATHER AND/OR OBSTRUCTIONS TO VISIBILITY.


SDZ001>005-009-010-012>017-210400-
NORTHWEST AND NORTH CENTRAL SOUTH DAKOTA

CITY           SKY/WX    TMP DP  RH WIND       PRES   REMARKS
FAITH            N/A     54  38  54 NW10      30.18R
MOBRIDGE       CLEAR     54  46  74 NW7       30.08R
$$

SDZ012>016-024>037-041>051-057-063-072>074-210400-
SOUTHWEST AND SOUTH CENTRAL SOUTH DAKOTA

CITY           SKY/WX    TMP DP  RH WIND       PRES   REMARKS
RAPID CTY ARPT CLEAR     54  40  59 N8        30.23R
PIERRE         CLEAR     55  39  54 NW12      30.10R
CUSTER         CLEAR     54  32  43 N5        30.33R
ELLSWORTH AFB  CLEAR     58  40  51 NW9       30.23R
PHILIP         CLEAR     54  40  59 W6        30.17R
PINE RIDGE     CLEAR     50  42  74 E3        30.24R
WINNER         FAIR      61  38  42 NW10      30.13R
$$

SDZ004>011-016>023-039-040-210400-
NORTHEAST SOUTH DAKOTA

CITY           SKY/WX    TMP DP  RH WIND       PRES   REMARKS
ABERDEEN       CLEAR     61  43  51 NW13      30.03R
WATERTOWN      CLEAR     59  45  59 W9        29.99R
$$

SDZ017-020-022-023-036>040-048>070-210400-
SOUTHEAST SOUTH DAKOTA

CITY           SKY/WX    TMP DP  RH WIND       PRES   REMARKS
SIOUX FALLS    PTCLDY    60  45  57 NW6       30.02R
HURON          CLEAR     53  41  63 NW8       30.04R
CHAMBERLAIN    CLEAR     56  41  58 NW5       30.10R
MITCHELL       CLEAR     58  44  60 NW8       30.05R
YANKTON        CLEAR     61  46  59 NW9       30.05R
$$

ABBREVIATIONS USED IN REMARKS
   TC - TEMPERATURE IN CELSIUS
  WCI - WIND CHILL INDEX
   HX - HEAT INDEX
  VSB - VISIBILITY




USA.gov is the U.S. government's official web portal to all federal, state and local government web resources and services.